Погода в Дерне

Ливия     32°45′10″N   22°38′23″E
темп.,
°C
ветер,
м/с
пор.,
м/с
влажн.,
%
обл.,
%
осадки,
мм/ч
давл.,
гПа
погр.,
м
10 августа, ср
ср1023:00+27сз78800 0.0 1012609
02:00+26сз89800 0.0 1011561
05:00+26сз78770 0.0 1010501
08:00+27сз89710 0.0 1011727
11:00+27сз1010650 0.0 1011755
14:00+28сз1010660 0.0 1011821
17:00+28сз911590 0.0 1011861
20:00+27сз811630 0.0 1011594
11 августа, чт
чт1123:00+27сз811670 0.0 1011455
02:00+27сз1013720 0.1 1010652
05:00+27сз913740 0.0 1010635
08:00+27сз911680 0.1 1011729
11:00+28сз911670 0.0 1011946
14:00+28ссз1013660 0.0 10111229
17:00+28ссз1014730 0.0 10111251
20:00+27ссз914750 0.0 10111158
12 августа, пт
пт1223:00+27ссз912710 0.0 1012864
02:00+27сз912780 0.0 1011829
05:00+26сз810780 0.0 1011685
08:00+27сз89740 0.1 1011785
11:00+27сз87680 0.0 1012677
14:00+27сз88690 0.0 1012692
17:00+27сз99720 0.0 1012705
20:00+27сз89790 0.0 1012726
13 августа, сб
сб1323:00+26ссз78770 0.0 1012593
02:00+26сз77740 0.0 1012568
05:00+26сз66730 0.0 1011515
08:00+26сз66710 0.0 1012709
11:00+27сз77690 0.0 1013735
14:00+27сз88680 0.0 1012730
17:00+27сз910710 0.0 1012836
20:00+26ссз89740 0.0 1012840
14 августа, вс
вс1423:00+26сз78720 0.0 1012718
02:00+26сз78720 0.0 1011691
05:00+26сз78730 0.0 1011769
08:00+26сз77700 0.0 1011919
11:00+27сз78670 0.0 1012856
14:00+27сз89680 0.0 1011660
17:00+27сз1112720 0.0 1010813
20:00+26сз1011750 0.0 1010725